{"data":{"norad_id":49297,"intl_designator":"2021-090U","name":"ONEWEB-0371","alt_names":[],"object_type":"PAYLOAD","status":"ACTIVE","operator":null,"country":"UK","launch_date":"2021-10-14","launch_site_code":"VOSTO","launch_vehicle":null,"mission":null,"orbit_class":"UNKNOWN","rcs_meters":null,"size_class":null,"mass_kg":null,"dimensions":null,"purposes":["comms"],"wikipedia_slug":null,"has_3d_model":false,"image_url":null,"decayed_at":null,"tle_current":{"epoch":"2026-05-24T23:45:29.711808Z","epoch_age_seconds":69947,"freshness":"FRESH","line1":"1 49297U 21090U   26144.98992722 -.00000014  00000+0 -68128-4 0  9993","line2":"2 49297  87.9154 309.5899 0001690  94.6630 265.4696 13.19726879223394","mean_motion":13.19726879,"eccentricity":0.000169,"inclination_deg":87.9154,"raan_deg":309.5899,"arg_perigee_deg":94.663,"mean_anomaly_deg":265.4696,"bstar":-6.8128e-5,"rev_number":22339,"period_min":109.11348574571,"perigee_km":1184.4850732757,"apogee_km":1187.0416716016,"semimajor_km":7563.9003724387,"source":"CELESTRAK","updated_at":"2026-05-25T13:38:22.523177Z"}}}